Location: Dehesa de la Cepeda
(40.6574°N, 4.3013°W)
Time: 02:43:40
(UTC+00:00)

Courier 1B - Pass Details

Date: 04 August 2021
Orbit: 963 x 1209 km, 28.3° (Epoch: 17 September)

Event Time Altitude Azimuth Distance (km) Brightness Sun altitude
Rises 21:36:10 0° 259° (W) 4,106 11.2 -20.5°
Reaches altitude 10° 21:39:35 10° 247° (WSW) 3,129 10.4 -21.0°
Maximum altitude 21:45:42 26° 195° (SSW) 2,142 9.0 -21.7°
Enters shadow 21:46:42 25° 183° (S) 2,166 8.9 -21.9°
Drops below altitude 10° 21:51:38 10° 143° (SE) 3,028 - -22.5°
Sets 21:54:53 0° 131° (SE) 3,947 - -22.9°
